Regional Weather Roundup
Issued by NWS

Home | Current Version | Previous Version | Graphics & Text | Print | Product List | Glossary Off
Versions: 1 2 3 4 5 6 7 8 9 10 11 12 13 14 15 16 17 18 19 20 21 22 23 24 25 26 27 28 29 30 31 32 33 34 35 36 37 38 39 40 41 42 43 44 45 46 47 48 49 50

000
ASUS43 KMPX 261201
RWRMN
WEATHER ROUNDUP FOR MINNESOTA
NATIONAL WEATHER SERVICE TWIN CITIES/CHANHASSEN MN
700 AM CDT FRI MAY 26 2017


NOTE: "FAIR" INDICATES FEW OR NO CLOUDS BELOW 12,000 FEET WITH NO
SIGNIFICANT WEATHER AND/OR OBSTRUCTIONS TO VISIBILITY. N/A MEANS
CURRENT SKY AND/OR WEATHER CONDITIONS ARE NOT AVAILABLE.

MNZ060>063-068>070-261300-
   Twin Cities Metro

CITY           SKY/WX    TMP DP  RH WIND       PRES   REMARKS
TWIN CITIES    CLOUDY    62  51  67 SE9       29.71R
6HR MIN TEMP:  61; 6HR MAX TEMP:  62;

ST PAUL        CLOUDY    61  55  81 SE8       29.71S
CRYSTAL        CLOUDY    61  51  70 SE8       29.69R
BLAINE         CLOUDY    63  55  77 S8        29.70R
LAKEVILLE      CLOUDY    57  52  82 S3        29.71S
EDEN PRAIRIE   CLOUDY    62  52  69 SE8       29.69R
6HR MIN TEMP:  59; 6HR MAX TEMP:  62;

SOUTH ST PAUL  CLOUDY    60  54  80 SE3       29.71S
LAKE ELMO      CLOUDY    61  54  77 SE7       29.72S
$$
MNZ001>005-007-008-013>017-022>024-027-028-261300-
   Northwest Minnesota

CITY           SKY/WX    TMP DP  RH WIND       PRES   REMARKS
BEMIDJI        SUNNY     55  52  90 SE5       29.64S
HALLOCK        SUNNY     50  46  87 CALM      29.58S
ROSEAU         CLOUDY    55  50  82 S3        29.60S
WARROAD        SUNNY     55  52  88 S6        29.61R
CROOKSTON      SUNNY     50  48  93 SW5       29.63R
FOSSTON        SUNNY     54  52  94 SW8       29.64R
DETROIT LAKES  MOSUNNY   54  52  94 SW3       29.66R
MOORHEAD       CLOUDY    52  46  82 SW6       29.66R
PARK RAPIDS    MOSUNNY   55  50  83 S7        29.65R
MAHNOMEN       FAIR      52  50  92 SW9       29.64R
$$
MNZ006-009>011-018-025>026-261300-
   North Central Minnesota

CITY           SKY/WX    TMP DP  RH WIND       PRES   REMARKS
BAUDETTE       CLOUDY    56  51  84 S8        29.62S
FLAG ISLAND    PTSUNNY   55  52  88 S9        29.59S
INTL FALLS     CLOUDY    54  51  90 SE6       29.66R
6HR MIN TEMP:  53; 6HR MAX TEMP:  58; 6HR PCP:  0.01;

WASKISH        PTSUNNY   57  52  82 S7        29.64R
BIG FORK       CLOUDY    55  52  88 SE5       29.67S
LONGVILLE      CLOUDY    54  52  94 SE3       29.67R
GRAND RAPIDS   CLOUDY    53  51  93 S6        29.70S
CRANE LAKE     CLOUDY    52  50  93 CALM      29.71S
ORR            CLOUDY    52  48  87 SE7       29.66S
COOK           CLOUDY    54  50  87 E3        29.69F
WALKER         FAIR      55  52  89 S5        29.65S
$$
MNZ012-019>021-037-261300-
   Northeast Minnesota

CITY           SKY/WX    TMP DP  RH WIND       PRES   REMARKS
DULUTH         CLOUDY    48  45  89 SE10      29.73R
6HR MIN TEMP:  48; 6HR MAX TEMP:  53; 6HR PCP:  0.02;

ELY            CLOUDY    52  48  87 SE6       29.73S
HIBBING        CLOUDY    51  51 100 SE3       29.69F
EVELETH        PTSUNNY   53  50  89 CALM      29.72S
DULUTH HARBOR  CLOUDY    45  43  93 NE9       29.75S
TWO HARBORS    CLOUDY    52  46  82 NE5       29.72F
SILVER BAY     CLOUDY    52  50  93 N3        29.74S
GRAND MARAIS     N/A     47  44  90 E9        29.78R
G MARAIS ARPRT LGT RAIN  50  43  76 E3        29.79S
$$
MNZ029>031-032-039>041-046>048-054>057-064-261300-
   West Central Minnesota

CITY           SKY/WX    TMP DP  RH WIND       PRES   REMARKS
FERGUS FALLS   MOSUNNY   52  52 100 W6        29.67R
WHEATON        MOSUNNY   54  46  76 W6        29.70R
MORRIS         PTSUNNY   54  50  87 W10       29.67R
ALEXANDRIA     CLOUDY    54  52  93 SW7       29.68R
ELBOW LAKE     FAIR      52  50  93 NW7       29.68R
WADENA         PTSUNNY   52  50  93 CALM      29.65S
GLENWOOD       MOSUNNY   52  52 100 SW6       29.68R
APPLETON       CLOUDY    54  52  94 W8        29.69R
BENSON         MOSUNNY   52  50  93 W3        29.70R
ORTONVILLE     CLOUDY    54  46  76 W8        29.70R
MADISON        CLOUDY    57  52  82 W12       29.70R
WILLMAR        FAIR      55  52  88 CALM      29.70R
$$
MNZ033>034-036-042>043-049>051-058-059-261300-
   Central Minnesota

CITY           SKY/WX    TMP DP  RH WIND       PRES   REMARKS
ST CLOUD       CLOUDY    57  54  89 SE5       29.68R
6HR MIN TEMP:  55; 6HR MAX TEMP:  60;

SAUK CENTRE    FAIR      53  50  92 S5        29.67R
PAYNESVILLE    PTSUNNY   56  51  85 S3        29.68R
AITKIN         CLOUDY    54  52  94 CALM      29.67R
PINE RIVER     CLOUDY    54  54 100 CALM      29.70S
BRAINERD       CLOUDY    56  53  90 SE5       29.67R
STAPLES        MOSUNNY   54  52  94 S3        29.65F
LONG PRAIRIE   FAIR      52  50  93 SE5       29.67S
LITTLE FALLS   CLOUDY    55  52  88 SE5       29.68R
LITCHFIELD     CLOUDY    59  54  82 CALM      29.69R
BUFFALO        MOSUNNY   60  52  73 S3        29.70R
MAPLE LAKE     CLOUDY    59  54  82 CALM      29.70R
HUTCHINSON     SUNNY     57  54  88 CALM      29.70S
$$
MNZ037-044-045-052-053-261300-
   East Central Minnesota

CITY           SKY/WX    TMP DP  RH WIND       PRES   REMARKS
PRINCETON      CLOUDY    61  54  77 SE6       29.69R
MORA           MOSUNNY   55  52  88 SE3       29.70S
CAMBRIDGE      CLOUDY    63  52  67 SE7       29.68R
RUSH CITY      CLOUDY    58  54  84 SE7       29.70R
MOOSE LAKE     PTSUNNY   50  46  87 NE3       29.69S
HINCKLEY       CLOUDY    59  55  88 SE6       29.70R
CLOQUET        CLOUDY    46  45  93 E6        29.72S
MCGREGOR       CLOUDY    52  50  93 SE5       29.70S
$$
MNZ071>073-080-081-089-090-097-098-261300-
   Southwest Minnesota

CITY           SKY/WX    TMP DP  RH WIND       PRES   REMARKS
MONTEVIDEO     CLOUDY    57  54  88 W8        29.69R
CANBY          PTSUNNY   56  50  79 NW7       29.72R
MARSHALL       CLOUDY    55  52  89 W8        29.71R
REDWOOD FALLS  CLOUDY    56  51  84 SW6       29.69R
OLIVIA         MOSUNNY   55  52  88 S6        29.69R
PIPESTONE      MOSUNNY   55  48  76 W6        29.72R
WINDOM         CLOUDY    57  52  82 SW5       29.71R
WORTHINGTON    CLOUDY    55  52  89 W7        29.72R
JACKSON        PTSUNNY   57  52  82 CALM      29.71S
TRACY          MOSUNNY   58  53  85 SW8       29.72R
SLAYTON        CLOUDY    53  51  90 SW7       29.72R
$$
MNZ065>067-074>077-082>085-091>093-261300-
   South Central Minnesota

CITY           SKY/WX    TMP DP  RH WIND       PRES   REMARKS
MANKATO          N/A     59  52  77 SE7       29.71R
NEW ULM        CLOUDY    57  52  82 S3        29.69S
ST JAMES       CLOUDY    59  54  82 S5        29.71R
FAIRMONT       CLOUDY    58  53  84 S6        29.71R
GLENCOE        CLOUDY    61  55  81 S3        29.69R
FARIBAULT      CLOUDY    61  52  72 SE6       29.72S
OWATONNA       CLOUDY    61  50  67 SE8       29.72S
WASECA         CLOUDY    57  50  77 SE7       29.72S
ALBERT LEA     CLOUDY    61  52  72 S7        29.71F
$$
MNZ078>079-086>088-094>096-261300-
   Southeast Minnesota

CITY           SKY/WX    TMP DP  RH WIND       PRES   REMARKS
ROCHESTER      SUNNY     56  54  93 SE10      29.75S
6HR MIN TEMP:  53; 6HR MAX TEMP:  58;

RED WING       MOSUNNY   61  54  77 SE7       29.73S
STANTON        CLOUDY    61  53  73 S6        29.71R
DODGE CENTER   CLOUDY    55  52  88 SE8       29.74R
WINONA         SUNNY     55  55 100 CALM      29.76R
AUSTIN         CLOUDY    57  52  82 SE3       29.73S
PRESTON        SUNNY     56  51  85 CALM      29.77R
$$
ABBREVIATIONS USED IN REMARKS
   TC - TEMPERATURES IN CELSIUS
  WCI - WIND CHILL INDEX
   HX - HEAT INDEX
  VSB - VISIBILITY
$$



USA.gov is the U.S. government's official web portal to all federal, state and local government web resources and services.